Location: Oshawa
(43.9000°N, 78.8670°W)
Time: 10:52:49
(UTC-04:00)

Cosmos 1408 Rocket - Visible Passes

Search period start: 21 April 2014 00:00
Search period end: 01 May 2014 00:00
Orbit: 604 x 632 km, 82.6° (Epoch: 21 April)

Date Brightness Start Highest point End Pass type
(mag) Time Alt. Az. Time Alt. Az. Time Alt. Az.
21 Apr 5.0 02:40:06 36° NE 02:40:06 36° NE 02:42:55 10° NNE visible
21 Apr 5.6 04:17:14 15° WNW 04:17:14 15° WNW 04:19:22 10° NNW visible
22 Apr 4.7 02:57:06 42° N 02:57:06 42° N 03:00:06 10° N visible
23 Apr 6.2 01:36:57 15° ENE 01:36:57 15° ENE 01:38:16 10° NE visible
23 Apr 4.8 03:14:05 34° NNW 03:14:05 34° NNW 03:17:02 10° N visible
24 Apr 5.7 01:53:56 23° NE 01:53:56 23° NE 01:56:05 10° NNE visible
24 Apr 5.3 03:31:04 23° NW 03:31:04 23° NW 03:33:43 10° NNW visible
25 Apr 5.2 02:10:54 33° NNE 02:10:54 33° NNE 02:13:30 10° NNE visible
25 Apr 5.8 03:48:02 14° WNW 03:48:02 14° WNW 03:49:53 10° NNW visible
26 Apr 4.9 02:27:51 38° N 02:27:51 38° N 02:30:40 10° N visible
27 Apr 6.1 01:07:40 15° ENE 01:07:40 15° ENE 01:08:52 10° NE visible
27 Apr 5.0 02:44:47 32° NNW 02:44:47 32° NNW 02:47:36 10° N visible
28 Apr 5.7 01:24:35 23° NE 01:24:35 23° NE 01:26:40 10° NNE visible
28 Apr 5.4 03:01:43 22° NW 03:01:43 22° NW 03:04:15 10° NNW visible
29 Apr 5.2 01:41:30 32° NNE 01:41:30 32° NNE 01:44:04 10° NNE visible
29 Apr 5.9 03:18:38 14° WNW 03:18:38 14° WNW 03:20:23 10° NW visible
30 Apr 4.9 01:58:25 38° N 01:58:25 38° N 02:01:12 10° N visible
